sat.trackr.live / text

‹ back to catalog

STARLINK-36312

NORAD 67609 · 2026-018W

PAYLOAD ACTIVE UNKNOWN

§ Identity

Operator
Country
US
Launch date
2026-01-29
Launch site
AFWTR
Launch vehicle
Mass (kg)
RCS (m²)

Purposes: comms

External: N2YO · Heavens-Above · Gunter

§ Orbital elements

Epoch: 2026-05-25T03:14:44.622816Z

Period
93.91 min
Inclination
97.2845°
Eccentricity
0.0000334
Mean motion
15.33454320 rev/d
Perigee alt
465.3 km
Apogee alt
465.7 km
Semi-major
6,843.7 km
B*
2.1824e-4
RAAN
210.3246°
Arg perigee
98.0465°
Mean anomaly
262.0816°
Rev number
1,905

§ Raw data

STARLINK-363121 67609U 26018W   26145.13523869  .00006979  00000+0  21824-3 0  99902 67609  97.2845 210.3246 0000334  98.0465 262.0816 15.33454320 19055

JSON: /api/v1/satellites/67609 · /tle

For live sub-satellite position, see the globe view (requires WebGL).

§ Visibility from observer

Set your observer location to see the next 7 days of passes ≥ 10°. The values pass through the URL so the page stays shareable.

No JS? Fill the form by hand. The geolocation button needs JavaScript.